Regional Weather Roundup
Issued by NWS

Home | Current Version | Previous Version | Text Only | Print | Product List | Glossary On
Versions: 1 2 3 4 5 6 7 8 9 10 11 12 13 14 15 16 17 18 19 20 21 22 23 24 25 26 27 28 29 30 31 32 33 34 35 36 37 38 39 40 41 42 43 44 45 46 47 48 49 50
000
ASUS43 KOAX 230402
RWRNE

WEATHER ROUNDUP FOR NEBRASKA
NATIONAL WEATHER SERVICE OMAHA NE
1100 PM CDT TUE JUL 22 2014

NOTES: SATELLITE DATA IS BEING USED TO AUGMENT CLOUD COVER ABOVE
       12000 FEET.
       "FAIR" INDICATES FEW OR NO CLOUDS BELOW 12,000 FEET WITH NO
       SIGNIFICANT WEATHER AND/OR OBSTRUCTIONS TO VISIBILITY.

  * THESE STATIONS DO NOT REPORT WEATHER SUCH AS RAIN...SNOW OR FOG.

NEZ001>004-019>022-054>056-230500-
NEBRASKA PANHANDLE

CITY           SKY/WX    TMP DP  RH WIND       PRES   REMARKS
SCOTTSBLUFF    MOCLDY    77  60  55 E13       30.23R
ALLIANCE       CLEAR     78  55  44 SE16      30.24R
CHADRON        TSTM      71  65  81 E24G44    30.25
KIMBALL        MOCLDY    72  58  62 SE7       30.28R
SIDNEY         MOCLDY    76  57  51 SE10      30.28R
$$

NEZ057>060-069>072-079>082-230500-
SOUTHWEST NEBRASKA

CITY           SKY/WX    TMP DP  RH WIND       PRES   REMARKS
NORTH PLATTE   PTCLDY    73  65  75 E9        30.22R
IMPERIAL       PTCLDY    77  60  55 E9        30.24R
LEXINGTON      CLEAR     74  68  81 NE8       30.22R
MCCOOK         CLEAR     77  64  64 E12       30.20R
OGALLALA       MOCLDY    74  63  68 E8        30.25R
$$

NEZ005>010-023>029-035>040-094-230500-
NORTH CENTRAL NEBRASKA

CITY           SKY/WX    TMP DP  RH WIND       PRES   REMARKS
VALENTINE      PTCLDY    73  63  70 E7        30.28R
AINSWORTH      CLEAR     67  64  89 E3        30.28R FOG
BROKEN BOW     CLEAR     71  64  78 E7        30.24R
O`NEILL        CLEAR     69  62  77 NE6       30.24S
ORD            CLEAR     68  65  90 NE3       30.22R
THEDFORD       CLEAR     71  61  70 E7        30.28R
$$

NEZ041-046>049-061>064-073>077-083>087-230500-
SOUTH CENTRAL NEBRASKA

CITY           SKY/WX    TMP DP  RH WIND       PRES   REMARKS
GRAND ISLAND   CLEAR     72  68  87 NE7       30.19R
AURORA         CLEAR     73  70  92 NE6       30.18S
HASTINGS       CLEAR     74  67  78 NE9       30.19R
HEBRON         CLEAR     78  69  73 NE7       30.15R
HOLDREGE       CLEAR     73  67  80 NE9       30.21R
KEARNEY *      CLEAR     73  66  78 NE9       30.21R
YORK           CLEAR     72  70  94 N7        30.18R
$$

NEZ011>018-030>034-042>045-230500-
NORTHEAST NEBRASKA

CITY           SKY/WX    TMP DP  RH WIND       PRES   REMARKS
NORFOLK        CLEAR     73  64  73 NE6       30.19S
ALBION         CLEAR     71  65  83 N3        30.21R
BLAIR          CLEAR     74  64  70 N5        30.16R
COLUMBUS *     CLEAR     70  64  83 NE6       30.19S
FREMONT        CLEAR     75  67  77 N5        30.16S
TEKAMAH        CLEAR     70  65  84 N5        30.16R
WAYNE          CLEAR     67  64  90 CALM      30.20R
$$

NEZ050>053-065>068-078-088>093-230500-
SOUTHEAST NEBRASKA

CITY           SKY/WX    TMP DP  RH WIND       PRES   REMARKS
LINCOLN        CLEAR     74  68  81 N8        30.15R
OMAHA EPPLEY   PTCLDY    74  67  78 N7        30.14R
BEATRICE       CLEAR     73  68  84 NE8       30.13R
FALLS CITY     CLEAR     79  72  79 N7        30.10R
NEBRASKA CITY  CLEAR     74  69  82 NE12      30.13R
PLATTSMOUTH    CLEAR     75  68  79 N6        30.14R
$$

NEZ044-045-051>053-067-230500-
OMAHA AREA

CITY           SKY/WX    TMP DP  RH WIND       PRES   REMARKS
OMAHA EPPLEY   PTCLDY    74  67  78 N7        30.14R
BLAIR          CLEAR     74  64  70 N5        30.16R
FREMONT        CLEAR     75  67  77 N5        30.16S
MILLARD        CLEAR     78  68  71 N3        30.14R
OFFUTT AFB     CLEAR     76  70  82 N6        30.13R
PLATTSMOUTH    CLEAR     75  68  79 N6        30.14R
WAHOO          FAIR      72  67  83 N5        30.15S
$$


USA.gov is the U.S. government's official web portal to all federal, state and local government web resources and services.